Flag for Canada Weather past 2 weeks in Brantford, Ontario, Canada

Now
39 °F

Scattered clouds.


Feels Like: 34 °F
Forecast: 33 / 59 °F
Wind: 8 mph from West

Location: Hamilton Airport

Current Time: Oct 24, 2014 at 10:46:27 AM

Latest Report: Oct 24, 2014 at 10:00 AM


Visibility: 10 mi

Pressure: 30.08 "Hg

Humidity: 93%

Dew point: 37 °F

Location of BrantfordLocation

Historic Weather in Brantford — Graph

°F

Brantford temperature yesterday

Maximum temperature yesterday: 63 °F (at 3:00 PM)
Minimum temperature yesterday: 41 °F (at 3:00 AM)
Average temperature yesterday: 50 °F

Past Weeks' High & Low Weather Summary

 TemperatureHumidityPressure
High72 °F (Oct 14, 11:00 AM)100% (Oct 11, 8:00 AM)30.29 "Hg (Oct 11, 8:00 AM)
Low32 °F (Oct 11, 7:00 AM)39% (Oct 11, 4:00 PM)29.51 "Hg (Oct 17, 6:00 PM)
Average50 °F80%29.96 "Hg
* Reported Oct 9 9:00 AM — Oct 24 9:00 AM, Brantford, Weather by CustomWeather, © 2014

Note: Actual official high and low records may vary slightly from our data, if they occured in-between our weather recording intervals... More about our weather records

Advertising

Brantford weather history for previous 24 hours

 ConditionsComfort  
Time TempWeatherWind HumidityBarometerVisibility
9:00 AM
Oct 24
36 °FFog.2 mph100%30.08 "Hg6 mi
8:00 AM32 °FIce fog.7 mph93%30.08 "Hg2 mi
7:00 AM34 °FLight fog.No wind100%30.06 "Hg15 mi
6:00 AM36 °FClear.6 mph93%30.07 "Hg15 mi
5:00 AM36 °FClear.5 mph100%30.06 "Hg15 mi
4:00 AM37 °FClear.5 mph93%30.05 "Hg15 mi
3:00 AM37 °FClear.2 mph93%30.06 "Hg15 mi
2:00 AM39 °FClear.8 mph93%30.06 "Hg15 mi
1:00 AM41 °FClear.7 mph93%30.06 "Hg15 mi
12:00 AM43 °FClear.5 mph87%30.07 "Hg15 mi
11:00 PM
Oct 23
45 °FClear.5 mph81%30.07 "Hg15 mi
10:00 PM48 °FClear.5 mph71%30.08 "Hg15 mi
9:00 PM48 °FClear.7 mph71%30.09 "Hg15 mi
8:00 PM50 °FClear.8 mph67%30.09 "Hg15 mi
7:00 PM52 °FPassing clouds.6 mph67%30.08 "Hg15 mi
6:00 PM57 °FPassing clouds.7 mph59%30.07 "Hg15 mi
5:00 PM61 °FPassing clouds.13 mph48%30.06 "Hg15 mi
4:00 PM63 °FPassing clouds.13 mph45%30.08 "Hg15 mi
3:00 PM63 °FPassing clouds.7 mph49%30.09 "Hg15 mi
2:00 PM61 °FPassing clouds.6 mph48%30.11 "Hg15 mi
1:00 PM59 °FSunny.8 mph51%30.13 "Hg15 mi
12:00 PM57 °FSunny.7 mph59%30.15 "Hg15 mi
11:00 AM54 °FSunny.8 mph58%30.17 "Hg15 mi
10:00 AM50 °FSunny.5 mph67%30.19 "Hg15 mi
Weather by CustomWeather, © 2014

See weather overviewHow to use our weather pages